[ hide orbit diagram ]
For accurate long-term ephemerides, please instead use our Horizons system.This orbit viewer was implemented using two-body methods, and hence should not be used for determining accurate long-term trajectories (over several years or decades) or planetary encounter circumstances.
Orbital Elements at Epoch 2459200.5 (2020-Dec-17.0) TDB
Reference: JPL 23 (heliocentric ecliptic J2000)
Element | Value | Uncertainty (1-sigma) | Units |
e | .1923780763244853 | 2.0557e-08 | |
a | 3.169461519437255 | 1.6037e-08 | au |
q | 2.559726609343436 | 6.4946e-08 | au |
i | 11.49934504335194 | 1.2618e-06 | deg |
node | 24.01418487059262 | 7.4872e-06 | deg |
peri | 130.7887015079892 | 9.2887e-06 | deg |
M | 145.6114133360654 | 7.6436e-06 | deg |
tp | 2458366.877230537862 (2018-Sep-05.37723054) | 4.1382e-05 | TDB |
period | 2060.993641437577 5.64 | 1.5643e-05 4.283e-08 | d yr |
n | .1746730279812479 | 1.3257e-09 | deg/d |
Q | 3.779196429531074 | 1.9122e-08 | au |
|
| | Orbit Determination Parameters
Additional Information
|
[ show covariance matrix ]
Physical Parameter Table
Parameter |
Symbol |
Value |
Units |
Sigma |
Reference |
Notes |
absolute magnitude |
H |
12.91 |
|
n/a |
E2021B10 |
|
diameter |
diameter |
15.663 |
km |
0.215 |
urn:nasa:pds:neowise_diameters_albedos::2.0[mainbelt] (http://adsabs.harvard.edu/abs/2011ApJ...741...68M) |
|
geometric albedo |
albedo |
0.060 |
|
0.012 |
urn:nasa:pds:neowise_diameters_albedos::2.0[mainbelt] (http://adsabs.harvard.edu/abs/2011ApJ...741...68M) |
|
|
4386 Lust (6829 P-L) Discovered 1960-Sep-26 by van Houten and Gehrels at Palomar |
Reference: DISCOVERY.DB | Last Updated: 2003-08-29 |
|
[ show close-approach data ]
Alternate Designations
6829 P-L = 1974 FO1 = 3279 T-3 |
|
|